Left ArrowRight Arrow

35.59393, -105.2239

Hourly Observations for April 4, 2021

Temp ( °F °C ) Dew Point ( °F °C ) Humidity (%) Winds ( mph kmh ) Pressure ( in mb ) Visibility ( mi km ) Precip ( " mm )
12:53 am 00:53 Clear 46 7.8 29 -1.7 51 51 S 10 17 30.07 1018 10 16 0.00 0.00
2:53 am 02:53 Clear 45 7.2 29 -1.7 54 54 SW 8 13 30.03 1017 10 16 0.00 0.00
3:53 am 03:53 Clear 41 5 29 -1.7 62 62 S 5 7 30.05 1018 10 16 0.00 0.00
4:53 am 04:53 Clear 42 5.6 29 -1.7 60 60 E 5 7 30.03 1017 10 16 0.00 0.00
5:53 am 05:53 Clear 39 3.9 29 -1.7 67 67 VRB 5 7 30.06 1018 10 16 0.00 0.00
6:53 am 06:53 Sunny 36 2.2 28 -2.2 73 73 Calm 30.09 1019 10 16 0.00 0.00
7:53 am 07:53 Sunny 47 8.3 32 0 56 56 Calm 30.09 1019 10 16 0.00 0.00
8:53 am 08:53 Sunny 60 15.6 31 -0.6 33 33 SSW 12 19 30.04 1017 10 16 0.00 0.00
9:53 am 09:53 Sunny 65 18.3 29 -1.7 26 26 SSW 16 26 30.03 1017 10 16 0.00 0.00
11:53 am 11:53 Sunny 71 21.7 27 -2.8 19 19 SSW 15 24 29.98 1015 10 16 0.00 0.00
12:53 pm 12:53 Mostly Cloudy 72 22.2 25 -3.9 17 17 S 17 28 29.95 1014 10 16 0.00 0.00
1:53 pm 13:53 Mostly Sunny 73 22.8 24 -4.4 16 16 W 8 13 29.93 1013 10 16 0.00 0.00
2:53 pm 14:53 undefined 74 23.3 22 -5.6 14 14 undefined N/A 29.89 1012 10 16 0.00 0.00
3:29 pm 15:29 Mostly Sunny 72 22.2 20 -6.7 14 14 S 10 17 29.61 1003 10 16 0.00 0.00
3:53 pm 15:53 Mostly Cloudy 71 21.7 20 -6.7 14 14 S 9 15 29.89 1012 10 16 0.00 0.00
4:53 pm 16:53 Cloudy 75 23.9 21 -6.1 13 13 NW 10 17 29.83 1010 10 16 0.00 0.00
5:53 pm 17:53 Partly Cloudy 72 22.2 21 -6.1 15 15 WSW 12 19 29.87 1012 10 16 0.00 0.00
6:53 pm 18:53 Partly Cloudy 69 20.6 23 -5 17 17 W 9 15 29.90 1012 10 16 0.00 0.00
7:53 pm 19:53 Mostly Clear 63 17.2 22 -5.6 21 21 W 8 13 29.88 1012 10 16 0.00 0.00
8:53 pm 20:53 Mostly Clear 61 16.1 24 -4.4 24 24 SSW 5 7 29.85 1011 10 16 0.00 0.00
9:53 pm 21:53 Clear 55 12.8 33 0.6 44 44 S 16 26 29.85 1011 10 16 0.00 0.00
10:53 pm 22:53 Clear 51 10.6 34 1.1 52 52 S 15 24 29.85 1011 10 16 0.00 0.00
11:53 pm 23:53 Clear 48 8.9 34 1.1 58 58 S 10 17 29.85 1011 10 16 0.00 0.00

Powered by Vaisala Xweather